Location: Ojos-Albos
(40.7060°N, 4.5163°W)
Time: 06:07:43
(UTC+00:00)

Daily predictions for brighter satellites

Satellite Brightness Start Highest point End
(mag) Time Altitude Azimuth Time Altitude Azimuth Time Altitude Azimuth
Cosmos 1408 Rocket 3.7 19:44:51 10° S 19:49:18 87° W 19:53:48 10° N
USA 267 3.5 19:45:11 10° ENE 19:51:29 48° SE 19:57:45 10° SSW
COSMOS 2406 3.8 19:46:21 10° S 19:51:32 36° ESE 19:56:43 10° NE
Shenzhou-11 Module 2.2 19:49:53 10° W 19:52:12 48° N 19:54:29 10° ENE
IRS-1A Rocket 4.4 19:47:09 10° SSE 19:52:43 71° ENE 19:58:27 10° N
Cosmos 1743 Rocket 3.8 19:48:56 10° S 19:53:13 51° E 19:57:33 10° NNE
Cosmos 2366 rocket 4.0 19:47:43 10° S 19:53:54 69° E 20:00:05 10° NNE
Lacrosse 5 4.4 19:56:07 10° NNW 19:58:12 12° N 20:00:16 10° NNE
CZ-2C R/B 4.4 19:54:24 10° NNE 19:58:33 32° E 20:02:36 10° SSE
MOS 1 Rocket 3.9 19:55:00 10° N 20:00:27 77° WNW 20:05:46 10° SSW
Cosmos 1862 4.2 19:58:00 10° SSE 20:01:33 30° E 20:05:08 10° NNE
Sich 1 4.4 19:59:11 10° SE 20:02:33 22° E 20:05:56 10° NE
SJ-6B 2.9 20:00:18 10° SSE 20:04:22 73° ENE 20:08:24 10° N
CZ-2C R/B 4.3 19:59:55 10° SSW 20:04:29 40° W 20:08:59 10° NNW
SL-8 Rocket 4.3 20:00:04 10° SSW 20:06:13 76° W 20:12:28 10° N
Cosmos 2082 Rocket 3.5 20:03:06 10° SE 20:06:55 19° E 20:10:45 10° ENE
Gbstr 26 Del rocket 4.2 20:03:37 10° WNW 20:06:57 29° SW 20:10:13 10° SSE
Cosmos 1500 Rocket 3.5 20:08:17 10° S 20:12:35 82° E 20:16:55 10° N
Ariane Rocket 3.3 20:11:32 10° S 20:16:34 69° WSW 20:21:38 10° NNW
USA 186 2.8 20:15:56 10° SSW 20:18:04 30° W 20:20:08 10° NNW
Resurs 1-3 3.8 20:13:54 10° SSE 20:18:08 52° ENE 20:22:24 10° N
BREEZE-M DEB (TANK) 4.2 20:11:28 10° WNW 20:18:53 35° SW 20:21:45 10° SSE
SL-08 R/B 4.5 20:14:33 10° S 20:20:45 73° E 20:26:55 10° NNE
FREGAT/IRIS 3.4 20:19:01 10° S 20:21:33 43° W 20:24:05 10° NNW
Cosmos 1992 Rocket 4.1 20:16:23 10° NNW 20:21:39 85° WSW 20:26:52 10° SSE
ARGOS 4.2 20:16:56 10° S 20:22:06 47° W 20:27:18 10° NNW
Cosmos 407 Rocket 4.1 20:17:44 10° SSE 20:22:35 37° ESE 20:27:26 10° NE
SL-8 R/B 4.0 20:20:03 10° WNW 20:24:52 64° NNE 20:28:49 15° ESE
USA 234 4.5 20:19:48 10° E 20:25:28 33° NNE 20:31:08 10° NW
CZ-2C R/B 2.7 20:21:14 10° N 20:26:25 80° WNW 20:31:37 10° SSW
Meteor 1-27 Rocket 4.4 20:27:10 10° N 20:32:43 40° ENE 20:36:53 17° SE
Meteor 1-10 Rocket 4.3 20:27:40 10° N 20:33:19 65° ENE 20:38:47 11° SSE
Cosmos 1782 3.8 20:30:44 10° NNW 20:34:37 48° W 20:38:29 10° SSW
Cosmos 1805 Rocket 3.5 20:31:18 10° S 20:35:41 69° E 20:40:07 10° NNE
H-2A R/B 4.1 20:31:42 10° SSW 20:35:58 26° W 20:40:11 10° NW
BREEZE-M DEB (TANK) 2.0 20:31:59 10° WNW 20:37:30 75° SW 20:39:00 25° SE
Cosmos 1980 Rocket 3.5 20:39:25 10° N 20:44:04 25° NE 20:47:05 17° E
SL-4 R/B 1.7 20:41:02 10° SW 20:45:06 77° SE 20:48:51 10° ENE
BREEZE-M DEB (TANK) 3.8 20:44:47 10° WNW 20:47:04 29° N 20:51:21 10° NE
Cosmos 1140 Rocket 3.7 20:43:11 10° S 20:48:12 48° ESE 20:53:15 10° NNE
Cosmos 972 4.5 20:44:43 10° N 20:49:49 60° ENE 20:52:43 24° SE
ATLAS 5 CENTAUR R/B 2.5 20:46:41 10° NW 20:52:35 88° WSW 20:57:17 21° SSE
Cosmos 389 Rocket 2.5 20:52:49 10° NNW 20:56:15 75° W 20:58:13 24° S
Cosmos 2228 Rocket 4.0 20:52:36 10° NNW 20:56:51 47° W 21:01:03 10° SSW
Cosmos 1833 Rocket 2.6 20:51:34 10° SSW 20:57:10 87° ESE 21:02:50 10° NNE
Cosmos 1633 Rocket 3.4 20:55:05 25° SSE 20:57:16 45° E 21:01:30 10° NNE
Cosmos 1812 2.7 20:55:33 10° N 20:59:25 83° W 21:01:40 24° S
SPOT 3 Rocket 4.0 20:54:53 10° S 20:59:58 63° WSW 21:05:09 10° NNW
Cosmos 1697 Rocket 2.8 20:54:34 10° NNW 21:00:08 59° ENE 21:03:04 27° SE
Cosmos 1867 3.7 20:58:19 10° S 21:03:31 49° ESE 21:08:45 10° NE
CENTAUR R/B 3.7 21:04:46 20° E 21:04:46 20° E 21:08:23 10° ENE
Resurs 01 Rocket 1.8 21:05:06 20° S 21:08:06 68° WSW 21:12:31 10° NNW
FALCON 9 DEB 3.1 21:07:19 10° SW 21:10:48 87° NW 21:14:19 10° NE
Cosmos 220 Rocket 4.0 21:06:40 10° NNW 21:10:52 75° WSW 21:12:45 32° S
Landsat 7 4.0 21:08:59 33° SE 21:10:52 57° ENE 21:15:33 10° N
Cosmos 1707 Rocket 3.4 21:06:39 10° N 21:11:01 82° E 21:12:53 33° SSE
Cosmos 1656 4.0 21:05:56 10° NNW 21:11:20 61° WSW 21:14:58 21° S
Cosmos 1441 Rocket 4.3 21:08:16 10° SSW 21:11:56 44° WNW 21:15:34 10° N
deb Kosmos-1763 4.0 21:14:16 55° SE 21:14:39 59° ESE 21:18:14 10° NNE
Cosmos 676 Rocket 4.1 21:14:02 24° S 21:17:03 56° ESE 21:22:17 10° NNE
IGS 5A 3.4 21:17:35 46° SE 21:18:40 68° ENE 21:22:48 10° N
Cosmos 1470 Rocket 3.9 21:19:31 42° ESE 21:19:59 44° E 21:24:11 10° NNE
Cosmos 1934 Rocket 4.0 21:16:23 15° S 21:21:46 83° E 21:28:11 10° N
Aureole 1 Rocket 4.2 21:16:15 10° S 21:22:38 74° ESE 21:30:38 10° NNE
Shenzhou-11 Module 3.6 21:24:01 10° WNW 21:25:15 26° WNW 21:25:15 26° WNW
Cosmos 2360 4.2 21:21:40 10° NNW 21:27:26 75° ENE 21:29:33 40° SE
NOSS 3-2 (A) 3.2 21:24:02 10° SSW 21:29:28 59° ESE 21:35:35 10° NE
GP-B 3.0 21:25:08 10° N 21:29:36 77° E 21:30:40 50° SSE
SL-24 R/B - RUBIN 2 4.4 21:27:04 10° NNW 21:33:45 83° ENE 21:36:03 42° SE
USA 267 4.1 21:28:11 10° NE 21:34:29 52° NNW 21:40:47 10° WSW
Cosmos 921 Rocket 3.9 21:31:04 10° N 21:34:50 33° ENE 21:34:50 33° ENE
NOSS 3-2 (C) 3.8 21:35:51 38° ESE 21:35:51 38° ESE 21:41:10 10° NE
ERS-1 Rocket 3.2 21:36:09 47° ESE 21:37:06 55° ENE 21:42:01 10° N
Cosmos 1862 Rocket 3.5 21:33:06 10° N 21:37:35 76° E 21:38:10 64° SE
Meteor 2-20 Rocket 4.4 21:35:56 10° N 21:42:09 88° E 21:44:35 40° S
SL-16 R/B 3.7 21:38:28 10° N 21:42:54 23° NE 21:44:17 21° ENE
Lacrosse 5 3.8 21:39:02 10° NNW 21:42:56 22° NNE 21:45:31 15° ENE
Cosmos 2369 4.0 21:42:27 10° NNW 21:48:07 63° WSW 21:50:01 40° S
Cosmos 1954 Rocket 4.1 21:46:57 23° SSW 21:50:23 76° WNW 21:55:44 10° NNE
Cosmos 2082 Rocket 2.7 21:44:50 10° SW 21:50:27 60° WNW 21:56:06 10° NNE
Cosmos 1818 4.1 21:46:20 10° NW 21:51:35 49° WSW 21:53:03 39° SSW
Spot 2 Rocket 3.9 21:51:36 38° SSW 21:53:20 56° W 21:58:22 10° NNW
Cosmos 1184 Rocket 3.9 21:53:55 43° NW 21:53:55 43° NW 21:56:44 10° N
Meteor 1-4 Rocket 3.7 21:53:34 10° NNW 21:56:38 37° W 21:56:38 37° W
CARTOSAT-1 3.4 21:57:12 87° NE 21:57:12 87° NE 22:01:31 10° NNW
Cosmos 2278 3.7 21:51:41 10° NNW 21:57:25 80° WSW 21:58:39 56° S
Cosmos 2123 Rocket 4.4 21:53:48 10° NNW 21:59:53 58° W 22:02:48 31° SSW
Terra 2.0 22:00:02 56° ENE 22:00:02 56° ENE 22:04:39 10° N
Cosmos 1933 Rocket 3.5 22:01:23 81° NNE 22:01:23 81° NNE 22:05:37 10° N
Cosmos 2322 Rocket 3.5 22:00:34 10° N 22:05:24 27° NE 22:06:13 27° ENE
Cosmos 1238 Rocket 4.4 22:06:53 25° NNW 22:06:53 25° NNW 22:08:20 10° N
Cosmos 2100 Rocket 4.3 22:05:35 45° E 22:05:40 45° E 22:11:28 10° NNE
Cosmos 1602 4.4 22:06:47 50° N 22:06:47 50° N 22:09:46 10° N
USA 234 3.2 22:06:06 51° SE 22:07:57 86° NE 22:14:32 10° NW
Okean 1 4.0 22:03:58 10° N 22:07:06 51° NNE 22:07:06 51° NNE
Cosmos 1605 Rocket 4.2 22:05:45 32° SSW 22:08:39 67° W 22:14:44 10° N
Cosmos 1437 Rocket 4.2 22:08:35 10° N 22:10:50 31° NNE 22:10:50 31° NNE
SPOT 5 2.8 22:15:08 67° WNW 22:15:08 67° WNW 22:19:05 10° NNW
ATLAS 3B R/B 4.0 22:21:12 22° ENE 22:21:12 22° ENE 22:24:05 10° NE
Cosmos 2360 Rocket 3.9 22:15:17 10° N 22:19:23 20° NE 22:20:19 19° ENE
Iridium 4 Rocket 4.4 22:21:45 30° NE 22:21:45 30° NE 22:24:13 10° NNE
Cosmos 2173 Rocket 4.1 22:21:11 57° E 22:21:11 57° E 22:27:10 10° NNE
Cosmos 405 Rocket 4.1 22:24:29 35° NW 22:24:29 35° NW 22:27:04 10° N
Meteor 1-19 Rocket 4.0 22:19:04 10° N 22:24:30 90° W 22:24:35 88° S
SL-4 R/B 4.1 22:21:48 10° WNW 22:24:58 24° NNW 22:27:13 14° NNE
Cosmos 1703 Rocket 4.2 22:20:53 10° N 22:24:15 53° N 22:24:15 53° N
USA 238 DEB 4.0 22:18:53 10° SW 22:25:26 63° NW 22:32:16 10° NNE
USA 238 4.0 22:19:00 10° SW 22:25:32 64° NW 22:32:22 10° NNE
Cosmos 2242 Rocket 4.1 22:21:10 10° NNW 22:24:58 58° NW 22:24:58 58° NW
Cosmos 1980 Rocket 2.7 22:22:52 10° NW 22:28:20 49° WSW 22:28:51 47° SW
Meteor 1-14 Rocket 4.3 22:29:25 66° SW 22:30:11 77° W 22:36:08 10° N
Cosmos 1763 Rocket 3.6 22:26:12 10° NNW 22:31:09 68° NE 22:31:09 68° NE
Cosmos 2016 Rocket 4.3 22:39:51 52° ENE 22:39:51 52° ENE 22:45:33 10° NNE
Meteor 1-5 Rocket 4.4 22:40:38 66° ENE 22:40:38 66° ENE 22:46:07 10° NNE
Cosmos 2061 Rocket 4.3 22:41:23 52° ENE 22:41:23 52° ENE 22:46:49 10° NNE
Cosmos 1459 Rocket 3.8 22:42:35 82° SE 22:42:45 83° E 22:49:07 10° N
Okean 1-7 4.2 22:42:19 10° NNW 22:45:21 41° NW 22:45:21 41° NW
MOS 1-B Rocket 4.1 22:42:00 10° NNE 22:46:44 57° NE 22:46:44 57° NE
CENTAUR R/B 2.7 22:51:50 46° WSW 22:53:37 66° NW 23:00:31 10° NNE
Cosmos 1802 Rocket 3.9 22:58:41 89° NNE 22:58:41 89° NNE 23:05:03 10° N
Meteor 2-4 Rocket 3.9 22:55:54 10° NNW 23:00:58 65° NW 23:00:58 65° NW
Cosmos 44 4.4 22:57:44 10° NNW 23:01:33 41° NNE 23:01:33 41° NNE
Cosmos 2346 Rocket 4.5 23:05:46 10° N 23:11:12 72° NNE 23:11:12 72° NNE
Cosmos 841 Rocket 4.3 23:18:18 10° NNW 23:22:05 48° NNW 23:22:05 48° NNW
Cosmos 540 Rocket 4.4 23:19:32 10° NNW 23:23:10 46° NNW 23:23:10 46° NNW
Lacrosse 5 3.0 23:21:28 10° NW 23:24:41 40° NW 23:24:41 40° NW
SL-16 R/B 3.0 23:21:49 10° NNW 23:26:08 46° WNW 23:26:08 46° WNW
Terra 4.2 23:38:55 14° W 23:38:55 14° W 23:40:44 10° WNW
Cosmos 2219 Rocket 3.6 23:33:34 10° N 23:38:19 30° NE 23:38:19 30° NE
Tsikada Rocket 4.2 23:34:09 10° N 23:39:45 70° NNW 23:39:45 70° NNW
Cosmos 2322 Rocket 3.4 23:44:14 10° NW 23:48:01 36° WNW 23:48:01 36° WNW
